346P/Catalina (2017)

Japanese version
Home page
Updated on August 28, 2018

---------------------------------------------------------------------

* Profile

Designation 346P/2016 R1
Recovery Date September 1, 2016
Magnitude 20.0 mag
Recoverer K. Sarneczky and P. Szekely (Piszkesteto Station of Konkoly Observatory)

* Pictures

* Orbital Elements

Epoch 2017 Feb. 16.0 TT = JDT 2457800.5
T 2017 Feb. 15.51681 TT                                 MPCW
q   2.2208720            (2000.0)            P               Q
n   0.10407757     Peri.  335.90315     +0.17126944     -0.91367674
a   4.4760811      Node   102.51479     +0.95411075     +0.06053791
e   0.5038356      Incl.   22.18293     +0.24564092     +0.40190793
P   9.47
From 461 observations 2007 Oct. 6-2018 Apr. 9, mean residual 0".6.

* Finding Charts

* Magnitudes Graph

        m1 = 9.5 + 5 log d + 18.0 log r(t - 100)

---------------------------------------------------------------------

The orbital elements are published on M.P.E.C. 2018-H105.
The charts are made with StellaNavigator Ver.8 (AstroArts).
The magnitudes graphs are made with Comet for Windows.

---------------------------------------------------------------------

Copyright(C) Seiichi Yoshida (comet@aerith.net). All rights reserved.